Theta_e
282 281 279 278 278 277 277 277 277 277 276 276 276 276 276 276 276 276 276 276 275 276 276 276 276 277 277 278 278 277 277 277 273 276 283 287 289 293 297 299 298 298 298
281 279 278 277 276 276 276 276 276 275 275 275 275 274 274 274 275 274 274 274 273 273 273 274 274 275 275 276 276 276 275 276 275 275 281 282 284 292 297 298 298 300 299
278 277 276 276 275 275 275 274 274 274 274 274 274 273 273 273 273 273 272 272 272 272 272 272 273 273 274 274 275 274 275 276 276 275 277 286 287 290 295 297 296 295 296
276 276 275 275 274 274 273 273 273 273 272 273 272 272 271 271 271 272 272 272 272 273 273 274 274 274 274 274 274 274 275 274 275 275 277 283 284 290 294 292 292 294 294
275 275 275 274 273 272 272 272 272 272 271 271 271 270 271 271 271 271 272 272 272 273 274 274 274 275 276 276 275 275 274 274 274 275 277 281 282 289 290 292 289 291 293
274 274 273 271 271 271 271 270 270 270 270 270 269 270 270 270 272 273 273 273 272 272 272 274 274 275 275 277 278 279 279 275 274 275 277 278 280 287 291 289 288 286 286
273 272 271 270 269 269 268 268 268 268 268 268 269 269 268 269 272 273 274 273 273 273 273 273 273 275 275 276 278 279 279 280 281 279 277 279 280 284 289 288 288 286 286
272 269 269 268 267 267 266 266 267 268 267 268 267 267 268 269 271 272 273 273 273 273 274 274 273 274 275 276 276 277 278 278 278 279 279 281 284 285 286 289 288 286 286
270 269 268 267 266 265 264 265 266 267 266 266 267 267 266 266 270 272 273 272 272 272 273 274 273 273 275 276 275 275 277 278 280 280 281 282 286 288 289 287 285 284 283
269 268 267 266 264 263 264 264 266 265 265 266 266 266 266 266 270 272 273 272 271 272 273 274 275 274 276 277 276 276 275 278 278 278 279 281 283 287 288 288 286 283 284
268 266 265 265 263 263 263 264 263 263 265 264 265 267 268 269 269 272 274 272 272 272 272 271 272 274 275 276 277 277 278 281 279 278 279 280 283 285 286 287 287 285 284
265 265 264 262 263 264 260 262 262 263 263 264 265 268 269 269 270 272 274 275 275 270 270 271 271 274 275 276 276 278 280 281 281 279 279 279 281 283 286 287 288 287 287
263 261 261 262 262 262 261 262 264 264 264 265 267 267 267 269 270 272 274 274 273 270 270 272 272 273 275 275 276 278 278 277 278 280 279 279 283 285 286 287 288 289 289
261 262 262 262 262 262 264 264 264 265 265 266 266 266 267 268 269 272 272 271 271 270 270 267 270 271 273 275 275 277 278 278 278 279 281 282 284 284 284 287 286 287 286
262 263 262 262 262 262 263 263 264 266 266 267 267 267 266 267 269 273 272 270 269 270 267 265 266 268 268 269 270 272 273 275 277 280 282 283 284 284 285 287 287 286 285
262 262 262 262 262 261 262 263 263 264 266 267 268 269 268 271 272 272 273 271 270 270 263 263 263 265 266 267 267 268 270 271 272 274 279 283 283 284 285 286 286 286 286
262 261 260 260 260 260 260 261 261 262 263 264 265 267 269 270 271 271 271 270 269 267 262 261 263 263 265 266 267 267 268 269 270 271 273 275 285 285 285 285 285 286 294
260 260 260 260 259 259 258 258 258 257 257 259 262 265 266 268 269 269 269 266 262 263 262 261 261 263 263 265 266 266 267 269 269 269 270 272 274 282 285 285 286 291 295
258 258 258 257 257 257 257 257 257 257 257 257 258 261 261 265 266 266 266 261 260 260 260 261 262 263 263 264 265 266 266 267 267 266 268 269 271 274 284 286 291 293 293
258 256 257 257 256 256 256 257 257 256 256 256 257 257 258 260 259 259 260 260 260 260 261 261 262 263 264 264 266 266 265 267 266 265 266 267 268 269 286 289 291 291 293
258 255 256 256 256 256 255 255 256 256 255 255 255 255 264 257 257 258 259 259 259 259 260 261 262 263 264 265 266 266 266 267 266 265 265 266 267 268 286 289 288 291 292
257 256 256 256 255 255 254 255 255 255 255 255 255 256 259 256 256 257 258 258 259 260 261 261 262 263 264 264 267 266 266 266 265 265 265 266 267 270 275 289 288 290 290
256 255 255 255 255 252 253 254 254 255 255 254 254 254 255 255 255 256 256 257 258 259 260 261 262 263 264 265 268 267 267 267 265 265 265 266 267 268 271 287 288 288 290
256 256 255 254 254 255 254 254 254 252 253 254 254 253 254 253 254 255 256 256 257 258 260 261 262 262 263 265 268 268 268 269 267 265 266 266 266 267 270 286 288 289 290
256 256 255 254 253 254 252 254 254 253 253 254 253 253 253 253 254 254 255 255 255 256 258 260 261 262 264 265 268 268 268 270 267 266 266 266 265 266 267 271 283 288 289
255 255 254 253 253 252 253 254 253 253 252 253 253 252 252 252 253 253 254 253 254 255 257 259 261 262 264 266 269 270 269 270 268 267 266 266 265 264 265 266 269 274 286
Wind_Speed
15 13 12 10 8 7 7 7 7 9 9 10 10 11 12 13 14 14 15 17 18 19 18 20 22 21 15 14 14 15 16 15 20 20 17 18 23 23 20 14 12 13 13
15 13 11 9 8 7 6 6 7 9 9 10 10 12 12 14 14 15 17 17 19 20 20 21 22 16 20 18 15 19 17 18 18 23 17 19 21 25 21 17 12 11 12
15 13 11 10 8 6 6 6 7 9 9 9 10 12 13 14 15 15 16 18 19 19 21 22 21 20 19 16 18 17 15 15 16 17 19 14 14 20 15 13 13 14 10
15 13 12 10 8 6 5 6 6 7 9 10 10 11 13 14 14 15 16 18 20 19 21 21 21 21 21 20 18 18 17 16 16 15 16 16 14 19 8 9 11 8 11
15 13 11 9 7 5 6 5 6 7 8 10 11 11 13 13 11 15 17 19 21 21 21 21 21 22 30 29 16 18 19 16 14 15 14 15 14 10 11 7 5 8 8
14 12 10 8 7 5 5 5 6 7 8 9 11 11 13 11 20 24 23 19 21 21 22 21 21 24 25 34 35 37 29 19 19 15 15 15 16 14 8 8 7 6 8
13 12 10 9 7 5 4 5 6 7 8 9 10 11 13 14 21 26 28 18 20 19 21 20 19 16 22 20 27 33 32 34 34 22 21 19 17 16 9 7 8 5 8
13 12 10 8 6 5 4 4 5 5 7 9 10 11 13 13 24 26 29 20 19 21 21 21 21 21 21 22 19 20 22 21 21 17 21 19 20 17 19 8 5 6 8
13 12 11 9 7 5 3 4 4 5 7 8 10 12 13 15 24 27 26 19 19 21 20 21 21 22 27 33 23 22 23 17 22 33 34 34 33 28 22 5 7 7 11
13 12 10 8 6 4 3 4 4 5 7 7 10 11 15 15 22 26 25 15 19 17 20 20 25 24 32 32 22 19 19 20 17 17 16 21 26 20 30 18 7 9 9
12 11 9 7 8 5 3 3 4 5 7 7 10 11 14 14 16 26 28 17 16 17 16 16 15 31 33 33 33 19 18 18 18 16 14 13 13 14 11 10 11 9 11
13 11 10 7 5 6 4 2 4 4 6 8 10 11 10 13 19 22 30 31 31 18 18 15 17 32 34 32 27 28 31 28 12 13 13 13 12 13 12 11 12 11 14
12 10 9 8 6 5 5 3 1 3 4 7 9 10 11 11 11 26 28 32 29 20 16 25 34 33 29 24 25 27 23 13 12 12 14 14 11 10 10 12 12 15 16
12 11 8 7 7 4 4 3 1 2 4 7 8 10 11 11 12 13 14 15 19 17 20 15 22 24 24 16 15 16 11 11 13 13 12 12 11 11 13 13 11 12 12
11 10 9 6 5 5 3 2 1 1 5 7 7 9 10 11 13 24 24 16 15 19 17 12 12 13 13 12 11 11 10 10 12 13 13 12 10 11 12 10 10 9 12
12 9 7 5 4 3 3 3 2 3 8 8 12 11 9 20 26 27 30 28 27 28 12 12 13 14 13 13 12 12 12 13 11 11 10 13 13 12 11 10 8 11 13
11 12 8 6 5 4 2 3 3 4 6 8 11 13 18 21 23 25 27 27 25 21 11 12 13 14 14 13 13 13 13 12 14 11 10 10 8 10 12 11 11 11 16
11 13 9 7 6 5 4 4 3 2 5 6 8 12 17 21 20 23 25 20 13 14 12 13 14 14 15 14 13 13 13 12 11 12 11 10 9 10 10 10 11 16 15
11 9 8 7 6 5 5 5 3 1 2 4 6 8 12 20 18 19 21 10 12 12 12 13 13 14 15 15 15 14 15 13 13 12 11 11 10 10 11 11 14 14 16
10 14 10 8 7 5 5 5 3 0 2 4 5 7 8 9 9 11 10 10 10 11 12 13 14 14 15 15 15 15 14 13 12 11 11 10 10 12 13 11 9 9 14
9 10 10 7 5 5 6 5 2 1 1 3 4 6 14 6 8 9 9 10 10 11 12 13 14 14 14 14 14 14 14 13 13 13 12 11 11 10 10 5 4 11 10
9 10 8 8 7 6 6 4 3 2 2 3 4 5 12 5 7 9 10 10 10 10 10 12 12 13 14 15 16 16 16 16 15 13 12 12 11 10 11 5 4 8 8
10 11 9 7 7 9 6 4 3 2 2 2 3 5 5 6 7 8 10 10 10 11 11 11 13 13 14 15 16 16 17 17 15 15 15 13 11 10 9 4 5 5 9
11 11 10 8 7 7 6 5 4 3 1 1 3 4 4 6 7 9 9 10 10 11 11 11 12 17 17 17 15 18 17 17 15 15 17 14 12 13 11 2 5 5 8
10 10 9 8 8 7 6 5 4 3 1 1 2 3 5 6 7 8 9 9 10 11 13 13 11 18 20 24 22 28 30 30 25 25 15 16 17 18 13 10 5 5 7
10 9 8 7 7 6 5 5 4 3 1 1 2 3 4 5 7 8 9 9 10 11 14 11 14 22 23 18 19 26 31 33 29 29 18 16 17 16 14 14 15 7 2
Wind_Direction
180 179 184 188 193 210 231 250 267 280 278 281 290 293 290 288 285 280 277 278 277 279 277 275 273 273 267 262 258 257 256 261 270 267 281 260 265 267 270 245 252 265 272
175 177 184 184 195 212 234 256 267 275 281 288 295 292 289 287 288 287 290 286 284 283 282 279 277 276 271 266 261 260 259 260 266 277 262 262 264 280 256 252 245 256 264
167 175 178 192 198 211 234 255 270 278 287 293 289 288 291 294 292 289 287 287 286 284 282 279 277 274 270 266 263 262 264 265 268 262 272 270 264 267 253 251 253 252 253
169 175 183 187 191 203 235 254 269 284 293 291 290 289 287 289 289 291 292 292 289 285 283 277 274 269 266 267 262 262 261 261 261 264 269 268 263 260 255 256 259 247 262
170 175 181 173 184 199 233 258 276 286 287 286 289 293 294 293 293 299 298 294 292 290 285 281 278 274 271 264 260 257 257 258 260 261 255 266 272 252 247 245 266 297 269
169 171 163 173 179 203 229 262 281 276 280 290 293 299 303 300 304 302 299 296 298 293 289 284 282 278 270 269 267 262 257 255 257 260 271 269 274 275 265 262 275 292 283
163 163 168 171 184 197 225 248 269 284 293 297 300 305 304 304 305 306 307 298 293 294 293 292 287 279 278 270 267 267 266 264 260 263 259 256 264 279 273 244 258 244 260
159 162 170 174 181 194 215 261 276 288 297 303 307 301 301 306 309 310 304 301 298 291 289 289 286 283 277 270 270 268 266 248 252 258 259 262 258 264 275 252 270 281 274
168 164 168 169 169 187 214 248 281 293 305 296 298 305 306 301 305 305 310 305 293 297 291 286 281 278 277 276 272 273 274 251 251 256 259 254 264 252 263 266 251 257 277
166 161 156 154 157 171 213 272 303 298 292 298 307 308 301 292 294 312 313 300 299 299 293 286 283 284 281 277 270 271 264 264 249 254 255 255 259 247 250 243 252 269 286
146 142 147 155 154 160 194 284 288 296 304 308 309 310 298 304 307 313 315 309 303 301 306 301 292 292 289 282 277 276 264 275 253 254 252 246 237 245 239 231 230 230 252
140 144 148 163 168 151 154 240 271 298 311 322 318 308 315 315 318 314 320 320 316 315 306 303 296 297 290 281 272 269 272 278 248 237 247 243 232 233 232 221 223 227 223
141 143 152 163 162 159 156 167 273 307 327 327 316 320 320 322 313 318 325 327 325 320 305 318 320 312 294 282 284 278 275 274 272 248 230 247 237 239 247 244 234 235 247
142 150 157 167 156 164 154 149 193 316 345 317 327 323 323 322 326 325 333 332 327 322 331 324 321 332 333 314 282 276 257 257 259 260 241 237 236 220 222 223 220 231 247
148 153 156 161 156 139 111 119 201 319 308 322 326 323 337 326 330 340 343 343 333 333 341 334 333 340 340 341 330 326 321 298 298 240 243 245 244 235 232 222 225 233 239
150 152 155 146 134 107 106 139 95 336 342 336 331 333 341 336 339 344 347 348 342 352 344 343 345 335 341 337 334 329 326 320 313 313 291 231 234 231 236 240 236 238 250
153 147 141 146 132 120 112 71 41 8 326 315 351 350 349 346 348 351 349 345 340 354 357 348 336 341 331 339 334 331 321 319 312 300 298 300 242 229 235 230 235 251 232
143 139 140 141 138 146 135 111 83 19 326 322 338 353 356 350 349 356 356 343 336 354 354 344 337 334 333 332 334 331 319 321 321 314 304 288 281 278 241 245 253 244 183
143 140 137 132 143 144 137 111 93 330 295 306 338 347 351 345 347 358 359 348 340 339 343 339 335 333 336 328 332 333 327 326 325 316 305 295 288 276 257 243 235 201 169
142 137 140 140 146 144 126 114 120 148 347 349 3 329 319 348 353 347 345 340 339 337 340 333 333 333 336 329 335 334 326 329 324 309 295 294 297 292 243 221 201 168 170
138 138 141 127 148 130 111 104 131 117 24 6 337 319 350 350 342 337 334 339 335 334 334 330 331 331 334 328 337 334 325 332 328 322 320 307 295 287 274 178 154 157 168
138 137 140 153 146 131 120 134 143 120 59 3 325 318 350 352 348 333 332 331 330 327 327 325 326 330 333 329 341 341 336 346 339 329 312 305 304 299 300 157 130 156 152
131 138 149 146 132 130 128 148 132 108 70 11 331 336 348 352 344 333 329 324 325 324 326 327 327 329 332 333 346 348 341 352 341 330 324 327 326 319 316 279 139 141 162
143 143 148 143 149 135 145 146 131 126 139 39 341 335 349 346 334 329 325 323 322 324 322 329 326 331 331 337 345 354 348 358 348 341 343 343 338 337 333 285 175 160 170
135 147 148 150 149 142 145 143 143 156 132 23 341 340 350 347 331 329 330 323 322 326 324 327 328 333 339 338 350 359 356 4 3 359 358 359 359 5 356 357 348 176 170
137 146 143 144 140 142 149 149 153 150 126 299 329 350 347 343 324 323 328 326 326 322 324 325 327 335 335 342 357 1 5 6 9 8 7 5 12 14 7 7 5 7 210